RH
65 88 89 95 93 98 73 80 67 81 83 92 90 88 62 76 64 99 87 79 74 87 100 99 92 99 99 99 100 91 100 97 94 75 63 64 48 42 43 47 51 49 46 46
99 96 97 100 100 100 89 90 75 84 97 85 91 61 60 61 79 90 96 80 73 82 98 98 99 99 100 99 100 99 98 97 77 93 72 65 71 60 64 65 69 82 82 88
97 94 97 99 100 100 88 97 76 89 95 89 97 92 67 70 74 79 77 72 78 83 96 100 100 94 99 100 100 100 99 100 96 98 83 72 74 70 66 77 83 79 86 87
97 100 94 97 92 85 99 82 86 93 81 84 99 78 67 54 76 59 90 79 86 91 98 100 100 96 83 81 95 99 93 99 97 85 95 85 79 74 82 86 84 76 80 86
100 97 99 100 84 91 83 94 99 79 73 90 85 74 85 98 98 100 99 97 94 85 96 98 100 100 100 98 91 90 81 74 82 100 100 100 97 98 95 91 92 89 90 93
93 92 91 93 89 93 90 97 97 80 70 85 88 80 99 98 99 100 100 99 99 98 97 94 90 84 83 91 96 76 89 77 92 98 83 87 86 80 99 94 90 92 89 88
99 100 97 90 95 94 97 98 93 81 79 78 89 75 97 99 100 100 100 98 99 83 99 83 84 88 81 91 96 91 85 86 90 94 99 98 99 98 99 99 96 91 99 97
95 98 98 100 87 97 99 80 68 65 60 67 84 96 97 100 99 98 98 98 96 84 76 70 71 78 80 80 82 86 89 92 92 89 86 84 85 83 91 86 91 92 93 92
95 98 96 95 95 94 71 73 66 73 76 58 70 74 88 91 80 67 69 79 68 54 63 78 78 76 79 76 70 69 70 72 77 78 75 73 75 71 71 73 75 77 78 82
90 98 91 85 71 68 66 62 64 62 58 58 52 53 62 66 60 60 53 46 44 42 62 71 70 65 56 50 50 51 52 53 56 59 56 56 59 63 63 64 66 67 67 68
78 86 98 85 76 66 69 66 54 56 57 37 40 52 55 62 57 53 50 48 47 49 52 48 46 44 40 39 33 35 37 36 38 40 39 46 60 72 73 74 69 58 68 74
73 89 98 93 85 70 66 59 55 59 54 55 41 58 62 59 53 49 47 44 41 39 38 39 35 32 32 32 30 29 28 28 32 43 47 47 47 60 72 72 66 71 74 76
65 67 79 77 73 65 67 58 54 48 45 57 43 60 63 59 56 52 50 50 50 48 44 40 38 36 35 33 33 34 35 41 50 55 56 55 56 70 76 79 81 79 75 66
54 52 59 62 68 58 64 52 47 43 59 56 56 72 76 68 64 62 59 55 51 48 49 49 48 44 42 40 39 37 36 36 35 39 48 60 63 67 68 65 59 55 63 71
62 74 70 68 67 66 63 59 55 49 51 61 68 74 66 58 52 49 50 51 52 52 50 49 48 49 48 46 46 47 47 45 44 43 40 37 37 37 38 41 47 50 53 60
57 69 65 69 71 70 66 62 65 63 58 51 54 54 58 56 51 48 47 46 45 44 45 46 48 47 47 48 50 49 48 51 49 48 49 48 45 43 41 41 40 40 48 51
51 55 54 64 57 54 60 58 60 60 58 54 56 49 50 49 47 45 44 44 44 44 44 46 50 50 53 57 54 48 52 54 53 55 57 54 52 52 51 52 47 42 40 43
55 52 51 60 47 47 60 58 56 53 51 47 44 43 42 43 39 35 35 38 40 40 41 40 42 43 50 56 59 54 47 44 46 49 54 61 60 59 60 55 50 48 48 47
48 44 39 55 48 44 46 53 58 55 50 50 48 43 40 43 48 49 50 49 40 31 24 18 16 13 13 16 28 46 52 54 52 49 46 46 50 50 52 59 53 45 52 56
45 42 39 37 49 32 35 42 48 49 57 33 31 32 32 31 27 21 23 13 7 6 6 6 5 5 5 5 5 5 8 36 56 57 53 50 49 45 45 48 54 57 54 57
46 44 50 48 57 35 29 32 41 54 35 26 29 28 27 23 18 9 7 7 6 6 6 8 11 14 23 30 18 10 8 10 38 71 68 58 51 49 39 47 58 61 66 66
48 51 52 51 60 46 27 31 26 23 20 18 15 13 11 9 8 7 7 6 5 5 5 6 10 21 32 42 46 37 30 17 27 66 77 76 63 54 53 38 50 58 66 83
45 42 44 35 29 25 24 21 22 16 11 9 10 11 11 10 7 7 7 6 5 6 5 6 14 29 37 46 64 68 57 40 37 40 91 93 76 66 58 58 49 61 76 88
39 43 41 34 28 26 24 19 15 10 8 8 12 13 12 8 7 7 6 5 6 8 8 14 28 39 48 60 73 83 74 54 60 47 58 98 88 76 68 68 64 74 87 98
41 42 36 26 25 24 19 18 16 11 7 9 13 13 9 7 7 7 7 7 10 11 14 23 35 50 60 79 84 86 87 77 67 59 58 98 94 84 76 78 80 84 97 99
24 22 25 22 18 18 15 16 18 15 8 12 15 12 7 8 7 7 8 10 13 17 23 33 47 56 70 87 92 87 97 97 78 73 71 99 99 90 93 90 97 93 100 99
Wind_Speed
17 18 21 14 19 11 14 14 15 17 23 22 19 19 18 23 29 17 32 31 31 32 34 32 33 36 34 35 36 46 39 39 34 26 29 26 28 32 29 27 23 23 21 22
13 22 19 13 12 17 12 16 17 13 21 16 14 12 15 17 26 6 16 32 32 32 30 32 33 13 32 38 35 37 37 35 50 36 37 25 28 30 27 27 29 25 25 22
18 16 3 6 9 11 12 16 16 14 19 10 12 6 3 10 27 32 21 31 31 30 31 22 28 24 9 32 35 45 28 31 33 49 41 35 26 37 41 33 34 33 29 27
8 3 6 8 10 12 12 23 16 21 18 8 11 5 9 14 18 29 25 30 29 28 31 19 12 6 4 1 21 33 6 25 23 32 40 34 30 37 40 40 43 43 36 34
6 6 8 9 12 12 7 18 21 21 14 10 13 6 15 12 3 21 22 23 28 24 18 15 15 14 13 11 11 12 12 12 12 30 30 35 33 26 26 38 50 43 35 32
10 12 7 8 10 11 16 17 15 11 9 7 9 12 3 9 1 18 20 24 23 21 19 16 13 10 12 16 17 11 16 18 21 21 14 15 19 20 27 26 23 26 27 26
18 13 11 15 11 7 7 17 4 4 4 4 1 3 8 13 11 22 25 26 22 19 19 19 17 16 13 13 17 18 19 22 25 27 25 26 25 27 25 25 29 32 33 33
6 4 6 12 15 8 9 1 2 5 4 4 7 7 6 15 17 10 21 22 22 22 17 15 15 16 16 17 16 16 16 18 19 20 21 21 22 23 23 24 26 27 26 26
4 7 11 16 17 8 1 6 8 9 8 8 4 8 11 13 17 17 12 10 13 13 15 21 16 18 21 22 23 24 24 25 26 26 27 27 25 24 23 23 24 22 23 23
8 6 12 15 13 11 8 4 2 3 4 5 6 10 9 9 16 18 18 16 12 12 11 13 15 16 18 19 23 26 26 27 29 31 31 31 34 34 32 30 29 29 28 28
5 5 5 16 10 11 10 6 5 5 4 4 5 6 7 12 14 14 12 12 12 12 11 10 10 11 12 13 15 18 22 23 24 27 29 31 32 35 36 35 33 31 30 29
8 7 9 12 11 12 16 15 6 1 4 8 13 6 11 13 13 13 12 9 7 7 8 9 10 11 12 12 13 15 18 21 23 24 25 27 29 32 33 33 32 31 30 30
8 5 3 4 5 8 9 11 12 10 8 6 4 9 13 14 12 11 11 11 10 9 8 9 10 11 12 12 11 9 11 16 18 21 22 23 24 27 30 31 31 32 32 30
8 8 2 4 6 6 5 7 8 8 8 11 16 20 11 9 7 6 6 7 8 9 10 11 14 15 16 16 16 16 15 15 15 17 20 24 25 28 29 30 30 28 27 27
8 12 14 14 10 9 9 8 7 9 10 10 14 9 2 1 4 7 10 12 14 15 17 19 22 23 25 26 25 24 24 24 24 24 23 23 24 25 25 27 29 29 29 29
7 8 10 9 7 5 5 5 6 8 8 8 6 5 2 3 7 10 12 14 15 17 19 21 23 25 28 29 30 31 33 32 32 32 31 31 30 30 30 29 27 27 30 30
6 5 5 2 3 5 5 5 5 3 3 4 2 2 4 7 10 11 13 15 16 18 21 22 23 24 25 26 29 32 34 34 35 35 36 37 38 38 37 36 35 34 33 32
5 4 3 2 2 1 3 1 2 2 1 2 2 4 7 10 11 13 15 17 19 22 25 28 31 33 32 30 29 32 33 35 36 37 38 39 40 40 39 39 38 38 39 37
2 2 2 1 2 1 4 4 3 2 5 7 8 9 10 11 13 16 18 23 30 33 35 38 39 42 43 43 43 42 40 38 38 37 37 38 40 42 42 41 39 37 37 38
3 2 1 1 1 3 3 5 4 5 8 2 3 7 11 15 20 20 27 31 33 35 38 40 39 39 37 38 40 45 47 47 45 40 40 39 37 38 41 40 38 36 36 36
5 5 4 4 3 4 7 6 3 2 4 8 12 16 20 23 26 31 34 35 36 38 39 39 39 41 40 36 38 47 51 51 49 42 41 41 39 38 38 40 40 39 37 36
4 3 4 5 4 4 6 6 5 5 9 13 17 21 25 28 32 35 38 40 41 42 42 44 46 44 38 40 42 42 41 49 49 45 42 41 38 37 38 41 42 40 38 36
6 9 4 7 5 4 5 6 9 11 15 18 21 26 30 33 36 38 41 44 43 42 43 44 44 45 43 43 41 41 42 42 42 39 43 38 36 35 36 39 41 42 38 37
11 12 11 8 8 11 11 9 12 15 17 19 24 29 32 35 37 39 41 40 41 40 41 42 43 45 43 41 42 43 40 41 38 34 40 36 34 33 33 37 39 40 37 36
13 12 11 14 14 15 15 14 15 17 18 21 25 31 33 34 36 37 37 38 37 37 37 38 41 41 39 41 40 39 33 35 30 33 38 33 31 30 31 34 37 36 34 35
14 16 16 13 13 15 16 17 18 18 19 23 27 31 33 34 34 36 36 35 36 35 35 37 40 38 37 38 35 24 23 28 33 33 37 25 29 27 29 33 35 35 34 35
Wind_Direction
270 268 266 270 227 233 223 215 204 197 183 189 212 234 243 239 233 226 215 225 218 216 217 212 230 220 201 193 200 197 187 186 189 194 198 203 210 210 213 216 219 227 234 242
267 265 288 262 229 221 240 202 193 181 165 178 201 239 254 247 236 274 256 222 217 213 220 220 212 219 208 200 195 195 199 203 196 222 216 220 226 216 215 218 219 221 226 232
260 265 299 217 196 197 228 197 174 156 147 155 157 189 263 266 245 258 254 219 212 210 217 210 229 267 245 200 197 200 208 214 219 221 215 220 221 226 228 225 228 225 236 230
295 339 173 162 180 189 206 167 172 161 144 123 182 148 26 249 244 233 219 218 206 208 219 217 224 238 147 218 196 199 212 199 196 192 194 212 222 230 232 231 237 245 242 243
61 84 155 181 179 169 175 163 166 154 144 95 50 90 9 11 285 177 173 192 199 191 188 204 211 219 223 187 213 215 192 202 226 221 211 215 218 225 224 238 234 235 244 255
97 95 113 144 162 152 165 173 156 145 90 59 21 61 26 344 34 168 151 167 180 187 190 194 202 220 227 228 215 228 236 221 228 233 251 238 229 231 236 230 239 250 236 255
90 98 128 140 154 182 160 143 113 88 72 80 114 112 16 10 57 169 157 154 163 175 176 181 183 188 200 202 207 218 227 231 232 237 242 239 247 250 248 237 247 254 250 251
102 106 69 157 146 150 150 334 9 116 118 115 42 43 346 53 63 95 153 159 171 176 191 195 218 216 212 217 223 224 227 231 235 238 242 245 241 247 248 248 247 249 249 252
86 75 114 130 127 134 128 61 86 102 108 99 85 109 52 68 83 98 121 173 188 197 225 225 229 238 235 240 242 243 242 242 242 243 248 252 253 250 250 248 249 252 256 255
82 87 127 121 107 88 89 96 45 78 111 95 102 69 74 93 98 95 94 105 153 188 200 212 231 239 245 247 247 248 248 250 247 246 249 251 251 251 251 251 253 256 257 258
58 63 72 138 90 66 59 38 60 83 64 129 125 73 90 117 106 100 103 112 131 148 174 201 226 242 248 248 247 249 249 249 249 247 247 248 248 251 254 256 257 258 258 261
69 90 97 101 98 76 61 55 82 1 84 91 105 77 113 127 123 119 116 122 138 166 200 217 232 247 253 256 254 252 249 250 252 251 252 251 250 249 251 254 255 255 257 260
101 99 91 99 79 53 62 53 54 81 100 66 120 138 122 125 131 140 146 147 153 167 185 198 207 215 228 239 239 240 242 242 246 254 259 260 255 252 251 252 252 254 256 257
91 83 103 87 102 88 69 53 53 53 69 90 109 130 126 138 157 178 194 210 223 226 232 238 244 245 246 248 254 255 253 250 248 251 255 258 258 256 255 257 258 256 253 250
95 97 100 97 95 86 80 81 78 90 90 112 134 131 144 215 265 274 280 282 281 281 276 269 268 268 267 265 263 262 261 259 257 256 254 252 252 254 257 257 256 253 249 246
110 118 108 91 109 109 86 75 83 96 109 131 145 169 189 292 301 303 300 298 294 290 285 283 283 278 274 272 271 267 263 261 259 257 253 252 252 252 251 250 249 248 246 246
112 122 115 87 97 115 97 89 102 117 129 144 153 215 271 295 301 300 298 296 297 296 294 294 292 288 285 279 272 268 266 264 260 257 254 252 250 249 248 247 247 247 246 243
101 92 78 118 87 115 164 106 134 143 165 214 243 275 285 288 288 290 292 295 295 294 294 293 291 289 286 283 280 277 273 267 263 261 259 258 254 251 250 249 248 246 245 244
114 87 58 56 50 273 253 214 191 239 280 275 286 293 301 310 314 306 298 298 298 297 295 294 291 289 288 288 283 276 272 270 269 266 260 255 254 253 249 247 248 246 244 244
216 198 160 152 187 224 234 204 224 287 283 269 281 301 301 300 296 294 299 304 305 306 307 306 303 299 296 284 274 272 272 267 263 262 261 260 257 253 252 248 245 247 244 241
226 231 222 224 240 251 222 220 241 239 269 313 316 312 309 309 311 315 318 317 318 319 318 315 311 310 308 298 276 265 258 254 256 255 255 255 255 254 252 249 245 244 242 238
227 225 217 212 226 271 197 204 224 271 298 309 315 317 318 319 319 320 321 321 321 320 319 318 316 313 310 302 295 287 285 275 269 256 251 251 250 250 247 245 246 244 242 235
244 220 235 224 235 224 245 274 290 304 314 318 320 319 318 317 317 320 320 320 318 319 320 317 315 313 310 304 299 290 278 276 266 264 250 247 248 246 246 241 239 240 239 233
256 241 241 262 260 259 263 278 298 305 306 311 315 315 313 314 317 318 317 315 317 321 321 319 316 311 307 303 297 291 279 265 266 256 250 245 245 244 243 241 232 235 236 231
254 246 252 257 261 269 272 280 283 293 296 306 311 309 310 313 316 315 317 318 320 320 319 314 314 313 310 308 306 298 282 262 260 253 246 241 245 243 240 236 231 234 234 230
257 252 250 269 264 268 277 278 283 286 295 305 307 307 310 314 316 317 321 320 320 320 320 319 320 319 315 314 317 296 289 262 254 250 251 240 248 242 238 231 226 226 228 227